[[{"header":{"parameterUnit":"m.s-1","parameterCategory":2,"la1":30.2991,"la2":30.254,"lo1":-89.0895,"lo2":-89.0444,"dy":0.0017,"dx":0.0017,"nx":28,"ny":28,"refTime":"2023-06-26T21:00:00:Z","depth":"0","parameterNumber":2,"parameterNumberName":"U-component_of_CURRENTS"},"data":[0,0,0,0,0,0,0,0,0,0,0,0,0,0,0,0,0,0,0,0,0,0,0,0,0,0,0,0,0,0,0,0,0,0,0,0,0,0,0,0,0,0,0,0,0,0,0,0,0,0,0,0,0,0,0,0,0,0,0.2774,0.2775,0,0.2834,0.2835,0.2836,0.2881,0.2882,0.2882,0.2882,0.2951,0.2953,0.2955,0,0,0,0,0,0,0,0,0,0,0,0,0,0.2821,0.282,0.2774,0.2775,0.2775,0.2834,0.2835,0.2836,0.2881,0.2882,0.2882,0.2882,0.2951,0.2953,0.2955,0,0,0,0,0,0,0,0,0,0,0,0,0,0.2835,0.2819,0.2774,0.2803,0.2806,0.2834,0.2835,0.2837,0.2881,0.2882,0.2882,0.2882,0.295,0.2953,0.2955,0.2966,0,0,0.2963,0.2964,0,0,0,0,0,0,0,0,0.2834,0.2834,0.2798,0.2801,0.2804,0.2848,0.2877,0.2879,0.2881,0.2855,0.2882,0.2882,0.2916,0.2921,0.2936,0.2969,0.2972,0.2963,0.2965,0.2966,0.2966,0,0,0,0,0,0,0,0.2833,0.2832,0.2801,0.2798,0.2802,0.2855,0.2856,0.2879,0.2886,0.2858,0.286,0.2863,0.2918,0.2933,0.2937,0.2973,0.2963,0.2965,0.2967,0.2968,0.3061,0.3062,0,0,0,0,0,0,0.2813,0.283,0.2799,0.2802,0.2817,0.2853,0.2855,0.2836,0.2885,0.2892,0.2863,0.2865,0.2929,0.2934,0.294,0.2969,0.2966,0.2968,0.2969,0.306,0.3061,0.3062,0,0,0,0,0,0,0.2814,0.2809,0.2796,0.2817,0.2819,0.2851,0.283,0.2837,0.2849,0.2888,0.2896,0.2867,0.2929,0.2936,0.2955,0.2972,0.2969,0.2971,0.3059,0.306,0.3061,0.3019,0,0,0,0,0,0,0.2814,0.2808,0.2798,0.2815,0.2817,0.281,0.283,0.2838,0.2849,0.2853,0.2895,0.2902,0.293,0.2951,0.2958,0.2975,0.2973,0.3057,0.3059,0.3061,0.3019,0.3019,0.3018,0,0,0,0,0,0.2815,0.2797,0.2796,0.2793,0.2797,0.2809,0.2815,0.2842,0.2849,0.2854,0.2879,0.29,0.2968,0.2953,0.2961,0.2979,0.3057,0.3059,0.3061,0.3019,0.3019,0.3018,0,0,0,0,0,0,0.2826,0.28,0.28,0.2778,0.279,0.2816,0.2824,0.2836,0.286,0.2863,0.2898,0.2906,0.2941,0.2962,0.2944,0.3015,0.3022,0.3026,0.2988,0.2988,0.2988,0.3006,0.2976,0,0,0,0,0,0.2817,0.2789,0.2788,0.2775,0.2775,0.2796,0.2807,0.282,0.284,0.2851,0.2878,0.2915,0.2957,0.2969,0.301,0.3029,0.3076,0.3053,0.3053,0.3052,0.3075,0.3136,0.3143,0.3069,0.3069,0.3069,0,0,0.282,0.2802,0.2789,0.2775,0.2786,0.2795,0.2804,0.2812,0.2831,0.2854,0.2884,0.2915,0.2965,0.3,0.3017,0.3014,0.3099,0.3055,0.3053,0.3077,0.3139,0.3146,0.3153,0.307,0.307,0.307,0,0,0.2814,0.2791,0.2769,0.2775,0.2778,0.2792,0.2789,0.2806,0.2822,0.2847,0.288,0.2913,0.2963,0.3004,0.3033,0.3053,0.3101,0.3067,0.3069,0.3127,0.3134,0.314,0.3206,0.3219,0.3058,0.3058,0.3058,0,0.2823,0.2789,0.2773,0.2767,0.2777,0.2787,0.2792,0.2812,0.2837,0.2853,0.2854,0.2946,0.2976,0.3035,0.3047,0.3054,0.3096,0.3059,0.3126,0.3133,0.314,0.3207,0.3221,0.3056,0.3056,0.3056,0.3056,0,0.2805,0.279,0.2782,0.277,0.2783,0.2786,0.2806,0.2821,0.2838,0.2862,0.2915,0.2955,0.3011,0.3025,0.3043,0.311,0.3128,0.3121,0.3121,0.3145,0.3214,0.323,0.3053,0.3054,0.3055,0.3055,0,0,0.279,0.277,0.2767,0.2768,0.2782,0.2789,0.2819,0.2846,0.2866,0.2901,0.2938,0.3007,0.3023,0.3059,0.3082,0.3128,0.3206,0.3142,0.3146,0.3199,0.3347,0.3318,0.3333,0.3203,0.3206,0.3208,0.3374,0,0.2783,0.2762,0.2762,0.2773,0.2771,0.2797,0.2825,0.2858,0.2886,0.2923,0.2974,0.302,0.3037,0.3057,0.3109,0.3188,0.3247,0.3163,0.3326,0.3332,0.3295,0.335,0.3238,0.3372,0.3389,0.3392,0.3394,0,0.2764,0.2752,0.2747,0.2765,0.2768,0.2786,0.2827,0.2855,0.2912,0.2935,0.2989,0.3025,0.311,0.3108,0.327,0.3214,0.329,0.3345,0.3352,0.3357,0.3333,0.3354,0.3401,0.3154,0.3419,0.3417,0.3415,0,0.275,0.2746,0.2738,0.2745,0.2768,0.2784,0.2808,0.2858,0.2879,0.2945,0.2967,0.3064,0.3113,0.3227,0.3329,0.3313,0.3498,0.3488,0.3543,0.3542,0.3498,0.3488,0.332,0.3617,0.3616,0.3616,0.3615,0,0.2738,0.2734,0.2728,0.2728,0.2737,0.2768,0.279,0.2827,0.2876,0.2898,0.297,0.301,0.3144,0.3246,0.3352,0.3495,0.3523,0.3575,0.359,0.3479,0.3466,0.3292,0.3207,0.3622,0.3621,0.3619,0.3618,0,0.2724,0.2717,0.2714,0.2726,0.2728,0.274,0.2769,0.2779,0.2838,0.2872,0.2893,0.2995,0.3139,0.3267,0.3452,0.3516,0.354,0.3693,0.3555,0.3551,0.3373,0.3294,0.3215,0.3166,0.3812,0.3812,0.3813,0,0.2709,0.2699,0.2701,0.2689,0.2692,0.2704,0.2703,0.2756,0.2766,0.2856,0.2869,0.3006,0.3084,0.3344,0.3514,0.3713,0.3541,0.3675,0.3629,0.3362,0.3286,0.3168,0.3125,0.3563,0.3562,0.356,0.3559,0,0.2681,0.268,0.2674,0.2648,0.264,0.2633,0.2641,0.2643,0.27,0.2742,0.2809,0.2883,0.3139,0.3269,0.3499,0.3618,0.3443,0.3653,0.341,0.3115,0.2948,0.2906,0.3453,0.3546,0.3548,0.3549,0.3549,0.355,0.2651,0.2637,0.2614,0.2589,0.2574,0.2542,0.2514,0.2533,0.2552,0.2581,0.271,0.2779,0.2932,0.3274,0.3381,0.3361,0.3424,0.3241,0.3188,0.3108,0.2976,0.3498,0.3573,0.3574,0.3575,0.3576,0.3577,0,0.2582,0.2562,0.2541,0.2496,0.2445,0.2467,0.2441,0.2402,0.2388,0.2472,0.2536,0.2588,0.2692,0.2829,0.2906,0.2824,0.2834,0.2711,0.2472,0.2479,0.2961,0.2855,0.2733,0.2733,0.2733,0.2733,0.2733,0.2734,0.2536,0.2483,0.2467,0.2362,0.233,0.2243,0.2211,0.2187,0.2219,0.2198,0.2199,0.2243,0.2193,0.2168,0.2085,0.2158,0.198,0.1967,0.1958,0.2182,0.2223,0.2263,0.2134,0.1863,0.1862,0.1409,0.1405,0.1401]},{"header":{"parameterUnit":"m.s-1","parameterCategory":2,"la1":30.2991,"la2":30.254,"lo1":-89.0895,"lo2":-89.0444,"dy":0.0017,"dx":0.0017,"nx":28,"ny":28,"refTime":"2023-06-26T21:00:00:Z","depth":"0","parameterNumber":3,"parameterNumberName":"V-component_of_CURRENTS"},"data":[0,0,0,0,0,0,0,0,0,0,0,0,0,0,0,0,0,0,0,0,0,0,0,0,0,0,0,0,0,0,0,0,0,0,0,0,0,0,0,0,0,0,0,0,0,0,0,0,0,0,0,0,0,0,0,0,0,0,0.0027,0.0028,0,0.0093,0.0094,0.0094,0.0072,0.0071,0.007,0.007,-0.0009,-0.0011,-0.0012,0,0,0,0,0,0,0,0,0,0,0,0,0,-0.0093,-0.0091,0.0027,0.0028,0.003,0.0093,0.0094,0.0094,0.0073,0.0071,0.007,0.0069,-0.0009,-0.0011,-0.0012,0,0,0,0,0,0,0,0,0,0,0,0,0,-0.0041,-0.0091,0.0027,0.0031,0.0032,0.0093,0.0094,0.0094,0.0073,0.0071,0.007,0.0069,-0.0009,-0.001,-0.0012,0.0004,0,0,-0.0018,-0.0019,0,0,0,0,0,0,0,0,-0.0044,-0.0037,0.0029,0.0031,0.0032,0.0078,0.0023,0.0059,0.0073,0.0051,0.007,0.0068,0.0011,0.0007,0.0017,0.0,-0.0003,-0.0018,-0.0019,-0.002,-0.0021,0,0,0,0,0,0,0,-0.0047,-0.004,0.0048,0.003,0.0033,0.0038,0.0043,0.003,0.0031,0.0053,0.0053,0.007,0.001,0.0019,0.0015,-0.0004,-0.0018,-0.002,-0.0021,-0.0022,-0.0012,-0.001,0,0,0,0,0,0,-0.0043,-0.0043,0.0046,0.005,-0.0004,0.0042,0.0047,0.006,0.0034,0.0032,0.0071,0.0069,0.0023,0.0017,0.0012,0.0024,-0.002,-0.0022,-0.0023,-0.0013,-0.0011,-0.001,0,0,0,0,0,0,-0.0046,-0.0036,0.0043,0.0009,0.0021,0.0046,0.006,0.0062,0.0075,0.0051,0.0044,0.0082,0.0022,0.0014,0.0006,0.0021,-0.0023,-0.0024,-0.0015,-0.0013,-0.0011,0.0052,0,0,0,0,0,0,-0.005,-0.0038,-0.003,0.001,0.0023,0.0084,0.0062,0.0065,0.009,0.0087,0.0058,0.0049,0.002,0.0009,0.0004,0.0017,-0.0026,-0.0017,-0.0014,-0.0011,0.0048,0.0056,0.0063,0,0,0,0,0,-0.0055,-0.0035,-0.003,-0.0019,0.0034,0.0086,0.0093,0.0102,0.0092,0.0105,0.0084,0.005,0.0022,0.0009,0.0002,0.0016,-0.0018,-0.0015,-0.0012,0.0045,0.0054,0.0062,0,0,0,0,0,0,-0.0084,-0.0033,-0.0027,0.0006,0.0046,0.0084,0.01,0.0112,0.011,0.0098,0.0066,0.0057,0.0056,0.0034,0.002,0.0029,-0.0003,-0.0001,0.0043,0.0051,0.0058,0.006,-0.0027,0,0,0,0,0,-0.0083,-0.0055,-0.0007,0.0022,0.0039,0.0071,0.0093,0.0104,0.0115,0.0113,0.0099,0.0079,0.0068,0.0056,0.0043,0.0047,0.0024,0.0053,0.0061,0.0067,0.0066,0.0053,0.0059,0.0,0.0,0.0,0,0,-0.0085,-0.0052,-0.0037,0.0018,0.0043,0.0082,0.0079,0.0117,0.0144,0.0103,0.0121,0.0104,0.0076,0.008,0.0078,0.0059,0.0075,0.0071,0.0076,0.0072,0.0057,0.0062,0.0067,0.0002,0.0002,0.0002,0,0,-0.0064,-0.0048,-0.0015,0.0018,0.007,0.0093,0.0108,0.0152,0.0159,0.0186,0.0159,0.0154,0.0145,0.0128,0.0116,0.0158,0.0116,0.0157,0.0189,0.0177,0.0181,0.0184,0.0173,0.0174,0.0157,0.0157,0.0157,0,-0.007,-0.0022,0.0003,0.0044,0.0073,0.01,0.0139,0.0161,0.0197,0.0203,0.0195,0.0192,0.0168,0.0166,0.0181,0.0172,0.0159,0.0155,0.0185,0.0188,0.019,0.0177,0.0178,0.0161,0.016,0.016,0.016,0,-0.0022,0.0015,0.0037,0.0094,0.0126,0.0165,0.0201,0.0227,0.024,0.0258,0.027,0.025,0.0243,0.0243,0.0222,0.0232,0.0216,0.0197,0.016,0.02,0.0184,0.0184,0.0165,0.0164,0.0163,0.0162,0,0,-0.0024,0.0054,0.0062,0.0093,0.0152,0.0186,0.0224,0.0269,0.0291,0.0313,0.0337,0.0327,0.0316,0.0303,0.0281,0.0273,0.0283,0.0247,0.0245,0.023,0.0259,0.0257,0.0256,0.0268,0.0269,0.0269,0.0244,0,0.0007,0.0082,0.0114,0.0181,0.0219,0.0246,0.0282,0.0317,0.0339,0.0367,0.0353,0.0364,0.0338,0.0336,0.0327,0.0295,0.0285,0.0291,0.0227,0.0225,0.0213,0.0257,0.0387,0.0376,0.0244,0.0244,0.0244,0,0.0047,0.0093,0.0157,0.0223,0.024,0.0278,0.0326,0.0364,0.0398,0.041,0.0417,0.0411,0.0407,0.038,0.0343,0.0349,0.0309,0.0283,0.0281,0.0254,0.0223,0.0314,0.0381,0.0419,0.0243,0.0243,0.0243,0,0.004,0.0124,0.017,0.0194,0.027,0.0294,0.0331,0.0373,0.0405,0.0436,0.0461,0.0449,0.0451,0.0409,0.0362,0.0351,0.0321,0.0293,0.0251,0.025,0.0335,0.0341,0.0426,0.0261,0.0261,0.0261,0.0261,0,0.0066,0.0108,0.0169,0.0198,0.025,0.0296,0.0348,0.0381,0.043,0.0476,0.0478,0.0512,0.0459,0.044,0.0382,0.0328,0.0332,0.0265,0.0248,0.0362,0.037,0.0383,0.033,0.026,0.026,0.026,0.026,0,0.0063,0.0105,0.0161,0.0229,0.025,0.0285,0.0364,0.0404,0.0448,0.051,0.0524,0.0556,0.0546,0.0488,0.0424,0.0358,0.0298,0.0272,0.041,0.0409,0.0393,0.0337,0.0232,0.0231,0.0224,0.0224,0.0224,0,0.0077,0.0103,0.0166,0.0194,0.0228,0.0287,0.0333,0.0401,0.045,0.0545,0.0578,0.0598,0.0639,0.0553,0.0473,0.0383,0.0315,0.0389,0.0384,0.0423,0.0347,0.0234,0.0234,0.0528,0.053,0.0532,0.0534,0,0.0093,0.0103,0.0138,0.0192,0.0241,0.031,0.0382,0.0428,0.0519,0.0587,0.0683,0.0731,0.0705,0.0709,0.0582,0.0518,0.0406,0.0421,0.0446,0.0577,0.0477,0.0461,0.0502,0.0551,0.0549,0.0548,0.0547,0.0547,0.0089,0.0107,0.0141,0.0193,0.0252,0.0338,0.0403,0.0491,0.0593,0.0738,0.0774,0.0911,0.0927,0.0809,0.0704,0.0648,0.0496,0.0636,0.0559,0.0438,0.0456,0.0521,0.0551,0.0549,0.0548,0.0546,0.0545,0,0.0087,0.0108,0.015,0.0222,0.0289,0.0328,0.0444,0.0527,0.0658,0.0827,0.0947,0.1129,0.1135,0.1064,0.0959,0.0846,0.0758,0.0782,0.0722,0.0711,0.0808,0.0849,0.0968,0.0968,0.0967,0.0967,0.0967,0.0967,0.0089,0.0111,0.0135,0.024,0.0301,0.0414,0.0488,0.0613,0.0757,0.1003,0.1182,0.1305,0.1329,0.1128,0.1031,0.0986,0.0865,0.0796,0.0678,0.0852,0.0835,0.0819,0.0855,0.0972,0.0971,0.0679,0.0677,0.0675]}],[{"header":{"parameterUnit":"m.s-1","parameterCategory":2,"la1":30.2991,"la2":30.254,"lo1":-89.0895,"lo2":-89.0444,"dy":0.0017,"dx":0.0017,"nx":28,"ny":28,"refTime":"2023-06-26T21:00:00:Z","depth":"2","parameterNumber":2,"parameterNumberName":"U-component_of_CURRENTS"},"data":[0,0,0,0,0,0,0,0,0,0,0,0,0,0,0,0,0,0,0,0,0,0,0,0,0,0,0,0,0,0,0,0,0,0,0,0,0,0,0,0,0,0,0,0,0,0,0,0,0,0,0,0,0,0,0,0,0,0,0.0383,0.0384,0,0.0455,0.0455,0.0456,0.0455,0.0455,0.0454,0.0454,0.0497,0.0499,0.05,0,0,0,0,0,0,0,0,0,0,0,0,0,0.0214,0.0217,0.0383,0.0384,0.0386,0.0455,0.0455,0.0456,0.0455,0.0455,0.0454,0.0454,0.0497,0.0499,0.0501,0,0,0,0,0,0,0,0,0,0,0,0,0,0.0282,0.0218,0.0383,0.0398,0.04,0.0455,0.0455,0.0456,0.0456,0.0455,0.0454,0.0454,0.0496,0.0498,0.0501,0.053,0,0,0.0508,0.0509,0,0,0,0,0,0,0,0,0.0278,0.0288,0.0394,0.0397,0.04,0.045,0.0412,0.0481,0.0456,0.0429,0.0454,0.0453,0.0483,0.0486,0.0494,0.0532,0.0534,0.0508,0.051,0.0511,0.0511,0,0,0,0,0,0,0,0.0274,0.0284,0.0406,0.0396,0.0399,0.039,0.0399,0.0424,0.0455,0.0431,0.0433,0.0449,0.0483,0.0492,0.0495,0.0534,0.0508,0.051,0.0512,0.0513,0.0701,0.0704,0,0,0,0,0,0,0.0278,0.0281,0.0404,0.0409,0.0342,0.0394,0.0404,0.043,0.0455,0.046,0.045,0.0449,0.0488,0.0493,0.0497,0.0616,0.0511,0.0513,0.0514,0.0697,0.0702,0.0706,0,0,0,0,0,0,0.0274,0.0289,0.0401,0.0349,0.0364,0.0399,0.0428,0.0432,0.0478,0.047,0.0473,0.0496,0.0488,0.0494,0.0563,0.0615,0.0514,0.0516,0.0693,0.0699,0.0704,0.0802,0,0,0,0,0,0,0.0269,0.0287,0.0323,0.035,0.0367,0.0465,0.043,0.0434,0.0489,0.0489,0.051,0.0511,0.0488,0.056,0.0565,0.0616,0.0518,0.0689,0.0696,0.0702,0.0794,0.081,0.0823,0,0,0,0,0,0.0263,0.0319,0.0324,0.034,0.041,0.0468,0.0476,0.0493,0.0493,0.0528,0.0547,0.0512,0.0606,0.0565,0.0571,0.0623,0.0685,0.0694,0.0702,0.0787,0.0807,0.0823,0,0,0,0,0,0,0.0287,0.0325,0.0331,0.0403,0.0445,0.047,0.0517,0.0525,0.0568,0.0578,0.0559,0.0563,0.0643,0.0632,0.0588,0.0701,0.064,0.065,0.0704,0.0722,0.0736,0.0732,0.052,0,0,0,0,0,0.0305,0.0349,0.0384,0.0451,0.0475,0.0503,0.0535,0.0549,0.0584,0.0603,0.0615,0.0639,0.0677,0.0699,0.0725,0.079,0.0781,0.0831,0.0845,0.0857,0.0862,0.0903,0.0921,0.0732,0.0732,0.0732,0,0,0.0338,0.0366,0.0395,0.0458,0.0492,0.0538,0.0521,0.0591,0.0631,0.0603,0.0675,0.0697,0.071,0.0779,0.0814,0.0777,0.0912,0.0868,0.0878,0.0875,0.0913,0.0931,0.0947,0.0737,0.0736,0.0736,0,0,0.0414,0.045,0.0502,0.0533,0.0593,0.0605,0.0636,0.0681,0.0706,0.0779,0.0771,0.0828,0.0882,0.0894,0.0908,0.1027,0.0992,0.1047,0.1111,0.1152,0.1167,0.118,0.1202,0.1216,0.1048,0.1049,0.1049,0,0.0455,0.0514,0.0533,0.0583,0.0614,0.064,0.0695,0.0731,0.0793,0.0825,0.0819,0.0924,0.0931,0.101,0.105,0.1056,0.1072,0.1036,0.1168,0.118,0.1192,0.1211,0.1225,0.1054,0.1054,0.1053,0.1053,0,0.055,0.0598,0.064,0.0694,0.0733,0.0794,0.0826,0.0879,0.0911,0.0939,0.1039,0.106,0.1118,0.1138,0.1129,0.1227,0.121,0.1182,0.1113,0.1216,0.1231,0.1244,0.1062,0.106,0.1059,0.1057,0,0,0.0636,0.069,0.0706,0.0721,0.0789,0.0822,0.0904,0.0972,0.1028,0.1093,0.1168,0.1242,0.1261,0.1281,0.1286,0.1318,0.1413,0.1296,0.1295,0.13,0.1507,0.1394,0.1396,0.1415,0.1417,0.142,0.1487,0,0.0705,0.0776,0.0799,0.0871,0.0902,0.0935,0.1001,0.1066,0.1123,0.1202,0.1249,0.1328,0.1314,0.1356,0.1396,0.1418,0.1452,0.1397,0.1422,0.1422,0.1294,0.1409,0.1191,0.1224,0.1499,0.1501,0.1502,0,0.078,0.0809,0.0878,0.0918,0.0941,0.0997,0.1082,0.1147,0.1258,0.1305,0.1395,0.1434,0.1527,0.1482,0.1574,0.1549,0.1544,0.1539,0.1541,0.1405,0.1333,0.1166,0.1236,0.1523,0.1522,0.152,0.1519,0,0.0781,0.0856,0.0898,0.0917,0.0985,0.1037,0.1091,0.1194,0.1248,0.1384,0.1442,0.1551,0.1612,0.1649,0.1677,0.1638,0.1754,0.1686,0.1574,0.1565,0.1365,0.1333,0.1734,0.1734,0.1734,0.1733,0.1733,0,0.0815,0.0855,0.0904,0.0926,0.0993,0.1047,0.114,0.1213,0.1323,0.1407,0.1503,0.1583,0.1659,0.1735,0.1732,0.1718,0.1808,0.1607,0.1585,0.1395,0.1366,0.1605,0.1589,0.1736,0.1735,0.1735,0.1734,0,0.0819,0.085,0.0894,0.0965,0.0992,0.1047,0.1148,0.1218,0.1327,0.1441,0.1492,0.1632,0.1744,0.1801,0.1864,0.1771,0.1772,0.1734,0.1502,0.145,0.1532,0.1521,0.1595,0.1592,0.1589,0.1587,0.1585,0,0.0826,0.0848,0.0907,0.0937,0.0982,0.1059,0.1122,0.122,0.1287,0.1465,0.152,0.167,0.1714,0.1774,0.1642,0.1595,0.1773,0.1419,0.1277,0.1552,0.1524,0.1517,0.151,0.1064,0.1058,0.1053,0.1049,0,0.0835,0.0861,0.0887,0.0934,0.0994,0.1062,0.1155,0.1183,0.1317,0.1397,0.153,0.1572,0.1553,0.141,0.1341,0.128,0.1405,0.131,0.1701,0.1119,0.1052,0.1024,0.1034,0.1005,0.101,0.1013,0.1015,0.1017,0.0839,0.0852,0.0873,0.0934,0.1002,0.1077,0.1106,0.1175,0.1242,0.1304,0.1381,0.1342,0.1189,0.0914,0.0917,0.0953,0.0989,0.0978,0.0993,0.1014,0.0927,0.0857,0.0758,0.076,0.0763,0.0765,0.0767,0,0.0831,0.0855,0.088,0.0944,0.102,0.1071,0.1139,0.1123,0.1166,0.1154,0.1154,0.0801,0.0623,0.0682,0.0551,0.0461,0.0433,0.058,0.057,0.0607,0.0642,0.054,0.0267,0.0267,0.0267,0.0267,0,0,0.0819,0.0821,0.0833,0.094,0.1022,0.1072,0.1103,0.1068,0.1018,0.0873,0.0774,0.0515,0.051,0.0308,0.026,0.0346,0.0503,0.0318,0.0687,0.0708,0.0745,0.0799,0.0672,0,0,0,0,0]},{"header":{"parameterUnit":"m.s-1","parameterCategory":2,"la1":30.2991,"la2":30.254,"lo1":-89.0895,"lo2":-89.0444,"dy":0.0017,"dx":0.0017,"nx":28,"ny":28,"refTime":"2023-06-26T21:00:00:Z","depth":"2","parameterNumber":3,"parameterNumberName":"V-component_of_CURRENTS"},"data":[0,0,0,0,0,0,0,0,0,0,0,0,0,0,0,0,0,0,0,0,0,0,0,0,0,0,0,0,0,0,0,0,0,0,0,0,0,0,0,0,0,0,0,0,0,0,0,0,0,0,0,0,0,0,0,0,0,0,0.072,0.0719,0,0.0638,0.0637,0.0636,0.0541,0.054,0.0538,0.0537,0.0378,0.0375,0.0372,0,0,0,0,0,0,0,0,0,0,0,0,0,0.0741,0.0741,0.072,0.0719,0.0718,0.0638,0.0637,0.0636,0.0541,0.0539,0.0538,0.0536,0.0379,0.0375,0.0371,0,0,0,0,0,0,0,0,0,0,0,0,0,0.0701,0.0741,0.072,0.0662,0.0657,0.0638,0.0637,0.0635,0.0541,0.0539,0.0537,0.0536,0.038,0.0375,0.0371,0.0382,0,0,0.0357,0.0355,0,0,0,0,0,0,0,0,0.0704,0.0701,0.0672,0.0666,0.066,0.0599,0.0586,0.0547,0.0542,0.0584,0.0537,0.0535,0.0447,0.0437,0.0425,0.0374,0.0367,0.0357,0.0354,0.0352,0.0351,0,0,0,0,0,0,0,0.0707,0.0703,0.0686,0.0671,0.0664,0.0622,0.0615,0.0578,0.0525,0.058,0.0573,0.0567,0.0443,0.0429,0.042,0.0365,0.0357,0.0353,0.035,0.0348,0.0233,0.0233,0,0,0,0,0,0,0.0725,0.0707,0.0689,0.0684,0.0679,0.0624,0.0615,0.0619,0.0526,0.0511,0.0569,0.0563,0.0438,0.0425,0.0414,0.0374,0.0352,0.0348,0.0345,0.0233,0.0233,0.0233,0,0,0,0,0,0,0.0726,0.0725,0.0692,0.0693,0.0686,0.0626,0.0631,0.0619,0.0583,0.0519,0.0502,0.0543,0.0436,0.042,0.0371,0.0369,0.0346,0.0341,0.0234,0.0233,0.0233,0.0324,0,0,0,0,0,0,0.0727,0.0726,0.0718,0.0695,0.0687,0.0683,0.0632,0.0619,0.0585,0.0576,0.0493,0.0477,0.0433,0.0378,0.0366,0.0362,0.0338,0.0234,0.0234,0.0233,0.0322,0.0327,0.0331,0,0,0,0,0,0.0729,0.0719,0.0719,0.0715,0.0684,0.0684,0.0676,0.0624,0.0586,0.0582,0.052,0.0478,0.0365,0.0375,0.0361,0.0355,0.0235,0.0234,0.0233,0.0319,0.0326,0.0331,0,0,0,0,0,0,0.0715,0.0709,0.0707,0.0694,0.0696,0.0668,0.0646,0.0623,0.0572,0.0549,0.0483,0.0464,0.042,0.0374,0.0386,0.0317,0.0289,0.0286,0.0359,0.0365,0.037,0.038,0.0334,0,0,0,0,0,0.0717,0.0708,0.0713,0.0703,0.0706,0.068,0.0664,0.0643,0.0604,0.0578,0.052,0.0454,0.0412,0.0378,0.0333,0.03,0.0257,0.0282,0.0287,0.0292,0.0289,0.0224,0.0223,0.023,0.023,0.023,0,0,0.0708,0.0702,0.0696,0.0699,0.069,0.0703,0.0664,0.0649,0.0645,0.057,0.0522,0.0474,0.0408,0.0373,0.0347,0.0329,0.0272,0.0291,0.0296,0.029,0.0223,0.0222,0.0222,0.023,0.023,0.023,0,0,0.0694,0.069,0.0686,0.0699,0.0698,0.0697,0.0697,0.0675,0.0647,0.0621,0.056,0.0509,0.044,0.0393,0.0362,0.0365,0.0306,0.0345,0.0372,0.031,0.0309,0.0307,0.0279,0.0274,0.0341,0.0341,0.0341,0,0.0677,0.0688,0.0685,0.0699,0.0708,0.0701,0.0719,0.0703,0.0661,0.0642,0.0612,0.0506,0.045,0.0406,0.0404,0.0377,0.0341,0.0362,0.0318,0.0315,0.0312,0.0283,0.0277,0.0345,0.0345,0.0344,0.0344,0,0.068,0.0691,0.0692,0.0716,0.073,0.0742,0.0751,0.0742,0.0711,0.0688,0.0635,0.0564,0.0496,0.0474,0.044,0.0392,0.0376,0.0341,0.0311,0.0318,0.0286,0.0278,0.0351,0.035,0.0348,0.0347,0,0,0.0626,0.0683,0.0681,0.0712,0.0743,0.076,0.077,0.0779,0.0777,0.0723,0.0701,0.0622,0.0574,0.0534,0.0478,0.0422,0.0382,0.0376,0.0371,0.0363,0.0266,0.036,0.036,0.0338,0.0337,0.0335,0.0263,0,0.0625,0.067,0.0693,0.074,0.0772,0.0794,0.0812,0.0817,0.0802,0.078,0.0705,0.0658,0.06,0.0566,0.0504,0.0417,0.0359,0.0406,0.0246,0.0242,0.0336,0.0353,0.0326,0.0268,0.0254,0.0253,0.0252,0,0.061,0.0651,0.0701,0.0775,0.079,0.0809,0.0849,0.0865,0.085,0.0831,0.0777,0.0725,0.0646,0.0588,0.0439,0.0473,0.037,0.0299,0.0293,0.034,0.0321,0.025,0.0252,0.0237,0.0239,0.024,0.0241,0,0.058,0.0649,0.0693,0.0719,0.08,0.081,0.084,0.0857,0.0873,0.0847,0.0848,0.0757,0.0701,0.0572,0.0447,0.0428,0.0295,0.0244,0.0231,0.0237,0.0162,0.0166,0.0115,0.0115,0.0115,0.0116,0.0116,0,0.0568,0.0595,0.0677,0.0703,0.0751,0.0801,0.0832,0.0855,0.0874,0.0899,0.0853,0.0853,0.0688,0.0609,0.0474,0.0363,0.0309,0.0246,0.0223,0.0199,0.0206,0.0128,0.013,0.0113,0.0113,0.0114,0.0114,0,0.0516,0.0571,0.0631,0.0718,0.0736,0.0764,0.0831,0.0858,0.0884,0.0915,0.0907,0.0897,0.0825,0.069,0.0501,0.0412,0.0284,0.0241,0.0258,0.0241,0.0255,0.0263,0.0217,0.0219,0.0222,0.0224,0.0225,0,0.0493,0.0521,0.0627,0.0663,0.0691,0.0739,0.0774,0.0833,0.0878,0.0953,0.0974,0.0942,0.0955,0.078,0.0624,0.0453,0.0349,0.0284,0.0244,0.0282,0.0264,0.0268,0.0273,0.0169,0.017,0.0171,0.0171,0,0.0469,0.0505,0.0578,0.0643,0.0685,0.0744,0.0803,0.0853,0.0939,0.1001,0.1098,0.1126,0.1027,0.0864,0.0666,0.0557,0.0327,0.0302,0.0292,0.0188,0.0242,0.0224,0.0227,0.0179,0.0178,0.0178,0.0177,0.0177,0.0454,0.0502,0.0597,0.0643,0.0696,0.0755,0.081,0.091,0.1019,0.1126,0.1157,0.1134,0.0881,0.0643,0.0536,0.0461,0.0473,0.0299,0.0293,0.0286,0.0334,0.0394,0.0368,0.0368,0.0369,0.0369,0.0369,0,0.0462,0.0512,0.0582,0.0675,0.0722,0.0732,0.0841,0.0936,0.1085,0.1116,0.1194,0.0857,0.0713,0.0516,0.0441,0.0376,0.0355,0.0302,0.0209,0.0204,0.02,0.0238,0.0249,0.0248,0.0247,0.0247,0,0,0.0482,0.0553,0.0594,0.0676,0.0714,0.0784,0.0842,0.0999,0.1062,0.1097,0.099,0.0845,0.061,0.0386,0.0307,0.0311,0.0297,0.033,0.0438,0.034,0.0336,0.0214,0.0273,0,0,0,0,0]}],[{"header":{"parameterUnit":"m.s-1","parameterCategory":2,"la1":30.2991,"la2":30.254,"lo1":-89.0895,"lo2":-89.0444,"dy":0.0017,"dx":0.0017,"nx":28,"ny":28,"refTime":"2023-06-26T21:00:00:Z","depth":"4","parameterNumber":2,"parameterNumberName":"U-component_of_CURRENTS"},"data":[0,0,0,0,0,0,0,0,0,0,0,0,0,0,0,0,0,0,0,0,0,0,0,0,0,0,0,0,0,0,0,0,0,0,0,0,0,0,0,0,0,0,0,0,0,0,0,0,0,0,0,0,0,0,0,0,0,0,-0.0648,-0.0649,0,-0.0673,-0.0673,-0.0673,-0.0697,-0.0697,-0.0698,-0.0699,-0.0797,-0.0799,-0.0801,0,0,0,0,0,0,0,0,0,0,0,0,0,-0.0551,-0.0553,-0.0648,-0.0649,-0.0649,-0.0673,-0.0673,-0.0673,-0.0697,-0.0697,-0.0698,-0.0699,-0.0796,-0.0798,-0.0801,0,0,0,0,0,0,0,0,0,0,0,0,0,-0.0583,-0.0554,-0.0648,-0.0666,-0.0669,-0.0673,-0.0673,-0.0673,-0.0697,-0.0697,-0.0698,-0.0699,-0.0795,-0.0798,-0.0801,-0.0802,0,0,-0.0811,-0.0812,0,0,0,0,0,0,0,0,-0.0582,-0.0587,-0.0663,-0.0665,-0.0668,-0.0686,-0.0675,-0.0721,-0.0696,-0.0682,-0.0699,-0.07,-0.0768,-0.0773,-0.077,-0.0806,-0.0811,-0.0811,-0.0813,-0.0814,-0.0815,0,0,0,0,0,0,0,-0.0579,-0.0585,-0.0655,-0.0664,-0.0667,-0.065,-0.0655,-0.0683,-0.0719,-0.0684,-0.0686,-0.0694,-0.0769,-0.0767,-0.0773,-0.0812,-0.0811,-0.0813,-0.0815,-0.0817,-0.0992,-0.0995,0,0,0,0,0,0,-0.0586,-0.0584,-0.0654,-0.0656,-0.063,-0.0651,-0.0657,-0.0676,-0.0717,-0.0724,-0.0693,-0.0695,-0.0761,-0.0769,-0.0777,-0.0918,-0.0814,-0.0817,-0.0819,-0.0989,-0.0992,-0.0995,0,0,0,0,0,0,-0.0584,-0.0592,-0.0653,-0.0622,-0.0629,-0.0653,-0.0673,-0.0676,-0.0707,-0.0724,-0.0732,-0.0725,-0.0762,-0.0772,-0.083,-0.0917,-0.0818,-0.0821,-0.0986,-0.099,-0.0994,-0.1113,0,0,0,0,0,0,-0.0581,-0.0592,-0.0604,-0.0623,-0.0631,-0.0668,-0.0672,-0.0676,-0.071,-0.0713,-0.0753,-0.0761,-0.0764,-0.0826,-0.0833,-0.0919,-0.0823,-0.0982,-0.0988,-0.0993,-0.1105,-0.1121,-0.1134,0,0,0,0,0,-0.0578,-0.0585,-0.0605,-0.0613,-0.0649,-0.0668,-0.0671,-0.0687,-0.0711,-0.072,-0.0759,-0.0761,-0.0866,-0.083,-0.0838,-0.0927,-0.098,-0.0986,-0.0992,-0.1099,-0.1118,-0.1133,0,0,0,0,0,0,-0.0551,-0.059,-0.0611,-0.0632,-0.0658,-0.0674,-0.0695,-0.0707,-0.0742,-0.0768,-0.0782,-0.0792,-0.088,-0.0879,-0.0839,-0.0993,-0.093,-0.0938,-0.1009,-0.1026,-0.104,-0.102,-0.0826,0,0,0,0,0,-0.0553,-0.0577,-0.0607,-0.0632,-0.0656,-0.0685,-0.0698,-0.0716,-0.0749,-0.0767,-0.0804,-0.0853,-0.0907,-0.0944,-0.0977,-0.1052,-0.102,-0.112,-0.1134,-0.1146,-0.1136,-0.1159,-0.1174,-0.1016,-0.1016,-0.1016,0,0,-0.0553,-0.0579,-0.0594,-0.063,-0.0665,-0.0691,-0.0697,-0.0739,-0.0761,-0.0774,-0.0843,-0.09,-0.0934,-0.1023,-0.1065,-0.1039,-0.1176,-0.1154,-0.1164,-0.1146,-0.1167,-0.1182,-0.1196,-0.1021,-0.102,-0.1019,0,0,-0.0564,-0.0599,-0.0623,-0.0648,-0.0701,-0.0716,-0.0738,-0.0786,-0.0812,-0.088,-0.091,-0.1002,-0.1081,-0.1123,-0.1154,-0.126,-0.1243,-0.1308,-0.1376,-0.1401,-0.1413,-0.1423,-0.1403,-0.141,-0.1324,-0.1324,-0.1324,0,-0.0565,-0.0602,-0.0632,-0.0664,-0.0698,-0.0736,-0.0775,-0.0791,-0.0851,-0.0886,-0.092,-0.1075,-0.1122,-0.1216,-0.1285,-0.1293,-0.1293,-0.131,-0.1417,-0.1427,-0.1436,-0.1412,-0.1419,-0.1331,-0.133,-0.1329,-0.1329,0,-0.0589,-0.0626,-0.0653,-0.0709,-0.0741,-0.0786,-0.0824,-0.0865,-0.093,-0.0961,-0.1086,-0.1162,-0.126,-0.1317,-0.135,-0.1463,-0.1437,-0.1425,-0.1369,-0.1459,-0.1428,-0.1433,-0.134,-0.1338,-0.1336,-0.1334,0,0,-0.0587,-0.0655,-0.0671,-0.0701,-0.0778,-0.0801,-0.0858,-0.0913,-0.0954,-0.1053,-0.1128,-0.1281,-0.1357,-0.1397,-0.1466,-0.1516,-0.1608,-0.1531,-0.153,-0.15,-0.165,-0.1447,-0.1432,-0.1636,-0.1638,-0.1639,-0.1602,0,-0.0611,-0.067,-0.0703,-0.0764,-0.0805,-0.0856,-0.0904,-0.0958,-0.1023,-0.1094,-0.1195,-0.1309,-0.1372,-0.148,-0.1539,-0.1598,-0.1629,-0.1617,-0.1575,-0.1572,-0.1373,-0.1434,-0.1645,-0.1605,-0.1606,-0.1607,-0.1608,0,-0.0624,-0.0669,-0.0757,-0.0804,-0.0832,-0.0891,-0.0985,-0.1025,-0.1111,-0.1175,-0.1294,-0.1359,-0.1498,-0.1528,-0.1634,-0.1639,-0.1662,-0.1676,-0.1674,-0.1439,-0.1378,-0.1498,-0.1616,-0.1615,-0.1614,-0.1614,-0.1613,0,-0.0613,-0.0683,-0.0766,-0.0795,-0.088,-0.0951,-0.1006,-0.1094,-0.1132,-0.126,-0.1318,-0.1439,-0.1547,-0.1597,-0.1649,-0.168,-0.1694,-0.1719,-0.1526,-0.1511,-0.165,-0.1639,-0.1749,-0.1749,-0.1749,-0.1749,-0.1749,0,-0.0612,-0.0668,-0.0788,-0.0832,-0.0917,-0.0998,-0.1094,-0.1143,-0.1249,-0.1281,-0.1403,-0.1413,-0.1585,-0.1599,-0.1633,-0.157,-0.1678,-0.1525,-0.1491,-0.1701,-0.1697,-0.1653,-0.1642,-0.1748,-0.1748,-0.1748,-0.1749,0,-0.0603,-0.0684,-0.0768,-0.0891,-0.0925,-0.102,-0.1123,-0.116,-0.1292,-0.134,-0.1398,-0.1453,-0.144,-0.1496,-0.1545,-0.1533,-0.1496,-0.1432,-0.1611,-0.1589,-0.1304,-0.1301,-0.1242,-0.1235,-0.1228,-0.1223,-0.1219,0,-0.0592,-0.0652,-0.0793,-0.0842,-0.0926,-0.1045,-0.1086,-0.1196,-0.1198,-0.1293,-0.1266,-0.1309,-0.1315,-0.1176,-0.1269,-0.1254,-0.1246,-0.1271,-0.134,-0.1281,-0.1255,-0.1261,-0.1266,-0.1209,-0.1207,-0.1206,-0.1204,0,-0.0566,-0.0666,-0.0734,-0.0833,-0.0918,-0.0937,-0.0994,-0.0981,-0.1079,-0.1209,-0.1091,-0.1086,-0.1017,-0.1,-0.0995,-0.0991,-0.1298,-0.1206,-0.1222,-0.1287,-0.124,-0.1222,-0.1234,-0.1182,-0.1185,-0.1187,-0.1189,0,-0.0555,-0.0601,-0.0704,-0.0787,-0.0844,-0.08,-0.0838,-0.0796,-0.0817,-0.0916,-0.0844,-0.0858,-0.0928,-0.085,-0.0823,-0.0818,-0.0838,-0.0902,-0.0934,-0.096,-0.0891,-0.0792,-0.0555,0,0,0,0,0,-0.0531,-0.0566,-0.0611,-0.0658,-0.0692,-0.0714,-0.0733,-0.0763,-0.0844,-0.0716,-0.0785,-0.0688,-0.0658,-0.0634,-0.0571,-0.072,-0.086,-0.0655,-0.0954,-0.1062,-0.1087,-0.1037,0,0,0,0,0,0,-0.0518,-0.0581,-0.0588,-0.0527,-0.0511,-0.0502,-0.0509,-0.0557,-0.0452,-0.056,-0.0479,-0.065,-0.0556,-0.0648,-0.0545,-0.0562,-0.0743,-0.0694,-0.0693,-0.1048,-0.107,-0.109,-0.1048,0,0,0,0,0]},{"header":{"parameterUnit":"m.s-1","parameterCategory":2,"la1":30.2991,"la2":30.254,"lo1":-89.0895,"lo2":-89.0444,"dy":0.0017,"dx":0.0017,"nx":28,"ny":28,"refTime":"2023-06-26T21:00:00:Z","depth":"4","parameterNumber":3,"parameterNumberName":"V-component_of_CURRENTS"},"data":[0,0,0,0,0,0,0,0,0,0,0,0,0,0,0,0,0,0,0,0,0,0,0,0,0,0,0,0,0,0,0,0,0,0,0,0,0,0,0,0,0,0,0,0,0,0,0,0,0,0,0,0,0,0,0,0,0,0,-0.0113,-0.0113,0,-0.0085,-0.0085,-0.0085,-0.0057,-0.0056,-0.0056,-0.0055,-0.0039,-0.0039,-0.0039,0,0,0,0,0,0,0,0,0,0,0,0,0,-0.0118,-0.0119,-0.0113,-0.0113,-0.0112,-0.0085,-0.0085,-0.0085,-0.0057,-0.0056,-0.0056,-0.0055,-0.0039,-0.0039,-0.0039,0,0,0,0,0,0,0,0,0,0,0,0,0,-0.0107,-0.0119,-0.0113,-0.0094,-0.0092,-0.0085,-0.0085,-0.0085,-0.0057,-0.0056,-0.0056,-0.0055,-0.0039,-0.0039,-0.0039,-0.0054,0,0,-0.0039,-0.0039,0,0,0,0,0,0,0,0,-0.0108,-0.0107,-0.0097,-0.0095,-0.0093,-0.0072,-0.008,-0.0074,-0.0057,-0.0072,-0.0055,-0.0055,-0.0051,-0.005,-0.0048,-0.0054,-0.0053,-0.0039,-0.0039,-0.0039,-0.0039,0,0,0,0,0,0,0,-0.0109,-0.0108,-0.0104,-0.0097,-0.0094,-0.0078,-0.0076,-0.0079,-0.0067,-0.0071,-0.0068,-0.0063,-0.005,-0.0048,-0.0048,-0.0053,-0.0039,-0.0039,-0.0039,-0.0039,-0.0076,-0.0077,0,0,0,0,0,0,-0.0111,-0.0109,-0.0105,-0.0103,-0.0097,-0.0079,-0.0077,-0.0081,-0.0067,-0.0064,-0.0064,-0.0062,-0.0048,-0.0048,-0.0047,-0.0063,-0.0039,-0.0039,-0.0039,-0.0075,-0.0077,-0.0078,0,0,0,0,0,0,-0.0112,-0.0112,-0.0106,-0.0103,-0.0101,-0.0079,-0.0085,-0.0081,-0.0079,-0.0061,-0.0058,-0.0065,-0.0048,-0.0047,-0.0057,-0.0063,-0.0039,-0.0039,-0.0074,-0.0076,-0.0077,-0.0097,0,0,0,0,0,0,-0.0112,-0.0112,-0.0117,-0.0104,-0.0101,-0.0107,-0.0085,-0.0081,-0.0076,-0.0074,-0.0062,-0.0059,-0.0047,-0.0057,-0.0057,-0.0062,-0.0039,-0.0073,-0.0075,-0.0077,-0.0095,-0.0099,-0.0103,0,0,0,0,0,-0.0113,-0.0125,-0.0117,-0.0116,-0.0108,-0.0107,-0.0105,-0.0088,-0.0077,-0.0083,-0.0076,-0.006,-0.0068,-0.0058,-0.0058,-0.0063,-0.0072,-0.0074,-0.0077,-0.0094,-0.0099,-0.0103,0,0,0,0,0,0,-0.0132,-0.0123,-0.0114,-0.0123,-0.0117,-0.0102,-0.0101,-0.0093,-0.0093,-0.0091,-0.0074,-0.0072,-0.0085,-0.0077,-0.0066,-0.0081,-0.0067,-0.0069,-0.008,-0.0085,-0.0088,-0.008,-0.0039,0,0,0,0,0,-0.0138,-0.0144,-0.0131,-0.014,-0.0135,-0.012,-0.0116,-0.011,-0.0105,-0.0104,-0.0098,-0.0094,-0.0095,-0.0091,-0.0096,-0.0103,-0.0067,-0.0108,-0.0111,-0.0114,-0.0109,-0.0067,-0.0066,-0.0085,-0.0085,-0.0085,0,0,-0.015,-0.0143,-0.0148,-0.0144,-0.0134,-0.0141,-0.0116,-0.0119,-0.0128,-0.0104,-0.0119,-0.0113,-0.0103,-0.0113,-0.0117,-0.0103,-0.0089,-0.0117,-0.0119,-0.0112,-0.0069,-0.0067,-0.0065,-0.0086,-0.0086,-0.0086,0,0,-0.0172,-0.0168,-0.0175,-0.0174,-0.0164,-0.0159,-0.0162,-0.0156,-0.0154,-0.0172,-0.0153,-0.0151,-0.0159,-0.0145,-0.014,-0.0169,-0.0116,-0.0169,-0.017,-0.013,-0.0127,-0.0124,-0.0064,-0.0056,-0.0162,-0.0162,-0.0162,0,-0.0184,-0.0193,-0.0179,-0.0184,-0.0192,-0.0171,-0.0189,-0.0185,-0.0187,-0.0189,-0.0184,-0.0185,-0.0176,-0.0169,-0.017,-0.0175,-0.0131,-0.0151,-0.0131,-0.0128,-0.0125,-0.0064,-0.0054,-0.0163,-0.0163,-0.0163,-0.0163,0,-0.0207,-0.0218,-0.0222,-0.0226,-0.0236,-0.0247,-0.0243,-0.0248,-0.0247,-0.0244,-0.0249,-0.0232,-0.0225,-0.0221,-0.02,-0.0174,-0.0142,-0.0145,-0.0114,-0.0123,-0.0059,-0.0049,-0.0165,-0.0164,-0.0164,-0.0164,0,0,-0.0227,-0.0236,-0.024,-0.0252,-0.0262,-0.0274,-0.029,-0.0297,-0.0306,-0.0299,-0.0309,-0.029,-0.0266,-0.0257,-0.0227,-0.0182,-0.0114,-0.0143,-0.014,-0.0071,0.0004,-0.0092,-0.0089,-0.0102,-0.0101,-0.01,0.0045,0,-0.0247,-0.0275,-0.0278,-0.0317,-0.0333,-0.0331,-0.0354,-0.0361,-0.0359,-0.0362,-0.0327,-0.0328,-0.0283,-0.0273,-0.022,-0.0149,-0.009,-0.0152,-0.0008,-0.0003,-0.0078,-0.0083,-0.0096,0.0053,0.0056,0.0057,0.0059,0,-0.0265,-0.0285,-0.0333,-0.0366,-0.0374,-0.0407,-0.0437,-0.0448,-0.0439,-0.0433,-0.0406,-0.0376,-0.0308,-0.0282,-0.0133,-0.0167,-0.0077,-0.0015,-0.0009,-0.0085,-0.0082,0.006,0.0078,0.0076,0.0075,0.0074,0.0073,0,-0.0287,-0.0319,-0.0366,-0.038,-0.0419,-0.0451,-0.047,-0.0482,-0.0493,-0.0471,-0.0472,-0.0393,-0.0361,-0.0237,-0.0113,-0.0103,0.0042,0.0065,0.0068,0.0064,0.0122,0.0117,0.0171,0.017,0.017,0.017,0.0169,0,-0.0305,-0.0344,-0.0388,-0.0415,-0.0479,-0.0494,-0.055,-0.0547,-0.0555,-0.0569,-0.0507,-0.0495,-0.0346,-0.0254,-0.012,-0.0008,0.0042,0.007,0.0086,0.011,0.0102,0.0131,0.0124,0.0175,0.0174,0.0173,0.0172,0,-0.0332,-0.0358,-0.0418,-0.0474,-0.0495,-0.055,-0.0603,-0.0632,-0.0624,-0.0637,-0.0627,-0.0554,-0.0445,-0.0307,-0.0122,-0.0043,0.0086,0.0113,0.0134,0.0148,0.01,0.0091,0.016,0.0157,0.0155,0.0154,0.0152,0,-0.0346,-0.0377,-0.046,-0.0511,-0.0551,-0.0619,-0.0665,-0.0674,-0.068,-0.0672,-0.0667,-0.0601,-0.054,-0.0325,-0.0202,0.0013,0.0032,0.012,0.0113,0.0086,0.0096,0.009,0.0083,0.0149,0.0148,0.0148,0.0147,0,-0.0372,-0.0414,-0.0463,-0.0558,-0.0634,-0.0697,-0.074,-0.0729,-0.0728,-0.0739,-0.0675,-0.0598,-0.0511,-0.0352,-0.0222,-0.0063,0.0074,0.01,0.0106,0.0101,0.0074,0.0084,0.008,0.014,0.0141,0.0142,0.0142,0,-0.0398,-0.0446,-0.0513,-0.0581,-0.0687,-0.0734,-0.0751,-0.0741,-0.074,-0.0689,-0.0683,-0.0595,-0.0546,-0.0396,-0.0266,-0.0149,-0.0102,-0.002,-0.0006,0.0003,-0.0118,-0.0179,-0.0175,0,0,0,0,0,-0.0413,-0.0448,-0.0519,-0.0599,-0.0697,-0.0739,-0.0782,-0.0779,-0.0758,-0.0708,-0.068,-0.0596,-0.0459,-0.0404,-0.0297,-0.0311,-0.0094,-0.0184,0.0006,0.0101,0.0109,-0.002,0,0,0,0,0,0,-0.0439,-0.0507,-0.051,-0.0584,-0.0624,-0.0724,-0.0745,-0.0734,-0.0672,-0.0647,-0.0561,-0.0561,-0.0414,-0.0504,-0.0286,-0.0264,-0.0127,-0.0131,-0.0129,0.0096,0.0104,0.011,-0.0019,0,0,0,0,0]}]]